Wetbulb
62.48 62.82 61.94 62.15 63.14 64.84 66.41 68.80 70.84 73.43 72.66 71.47 72.28 73.21 73.54 73.34 73.70 73.77 74.37 74.23 73.62 72.98 72.42 71.68 71.18 71.23 69.52 68.13 68.83 67.92 67.52 66.55 63.25 65.64 67.00 66.19 66.39 65.44 65.96 66.95 67.85 67.67 66.30
61.24 63.04 62.35 62.33 63.19 64.15 65.87 68.49 70.08 70.84 72.44 72.57 72.95 72.76 72.39 72.41 73.81 73.95 73.84 73.34 72.25 71.28 71.13 70.72 70.03 69.53 70.26 69.95 68.87 68.76 67.69 67.64 64.98 64.19 64.41 64.17 64.72 65.82 65.14 66.53 66.13 67.69 67.41
59.40 61.88 63.50 63.83 64.32 64.41 65.82 68.05 69.87 69.97 71.66 72.54 72.68 72.32 71.80 72.26 73.40 74.12 73.64 72.24 71.63 71.29 70.71 70.08 69.91 69.61 69.12 68.81 68.65 67.39 66.91 66.81 66.85 65.34 62.84 63.84 63.56 65.71 62.56 64.95 64.93 64.97 66.00
58.65 60.73 62.17 64.26 65.77 65.47 66.24 67.76 69.46 69.59 70.74 72.11 72.42 72.14 72.04 72.74 73.38 73.60 73.03 72.10 71.37 70.72 70.88 70.54 69.86 69.17 68.88 68.72 67.96 67.47 67.33 66.26 65.60 64.22 63.55 61.76 62.36 62.12 62.58 61.37 62.09 62.99 62.74
57.96 59.75 61.69 63.89 65.64 66.77 66.44 67.73 69.30 69.50 70.17 71.57 71.84 71.95 72.63 72.92 72.65 72.87 72.09 71.78 70.80 70.49 70.32 69.51 70.06 67.63 63.68 65.17 67.18 67.48 66.97 65.73 64.07 64.34 61.41 61.43 60.38 59.57 59.64 61.09 61.79 62.09 62.45
58.03 58.98 61.35 62.88 64.52 65.96 67.00 68.24 68.95 69.13 70.03 70.94 71.27 71.62 72.40 71.77 54.46 57.10 67.26 70.74 69.94 69.26 67.72 68.71 68.63 63.30 62.40 57.57 56.95 57.26 63.80 66.46 64.47 62.19 63.34 61.35 59.92 61.11 60.71 61.05 60.71 59.98 59.12
57.88 58.92 61.10 62.53 63.80 65.19 67.19 68.03 68.33 69.61 71.56 71.28 71.49 71.93 71.70 71.71 52.84 54.33 56.92 69.16 68.69 68.05 68.03 67.95 67.39 67.19 64.35 66.82 55.71 54.51 55.49 54.52 57.08 65.39 64.57 63.22 61.57 61.99 63.37 62.08 59.74 60.58 61.71
56.76 58.75 60.33 61.80 63.29 65.32 67.38 67.87 69.36 70.36 72.24 72.40 71.91 71.86 70.73 67.53 50.74 50.99 54.09 68.85 68.45 68.15 68.63 68.29 67.57 66.70 66.30 65.15 64.54 63.95 63.89 61.62 62.55 65.70 66.16 65.36 64.81 64.92 63.43 64.19 63.54 62.45 63.69
56.47 58.20 59.51 61.56 63.35 64.86 66.79 67.86 67.70 68.45 69.38 69.41 70.21 70.48 70.86 63.40 47.66 49.49 59.24 67.74 67.37 67.62 67.53 67.12 65.94 66.01 52.86 51.44 63.62 63.09 61.59 61.56 54.14 50.38 51.70 50.98 50.40 52.42 58.59 62.56 61.14 59.93 59.39
56.72 57.96 60.50 63.07 62.10 64.70 65.73 65.76 67.58 68.35 68.86 68.85 69.23 69.70 61.68 63.49 46.05 48.77 57.85 66.34 66.59 65.48 65.45 65.09 51.51 60.69 46.23 47.32 63.79 60.99 60.07 60.96 63.36 63.07 61.81 56.88 57.15 56.96 52.21 62.26 63.06 60.14 59.81
57.62 58.65 61.54 62.23 62.77 64.77 65.19 66.62 67.53 67.39 67.88 67.37 66.99 65.91 63.58 59.90 55.56 47.32 49.65 66.53 65.30 64.58 64.27 63.93 64.07 44.69 44.05 45.32 52.00 62.40 59.20 61.68 58.50 63.67 62.84 62.67 62.84 62.35 62.24 64.68 65.93 63.19 60.47
56.49 58.45 60.86 60.26 63.95 64.95 65.45 65.47 66.02 66.77 65.83 64.90 64.81 62.79 63.36 64.63 53.71 46.96 47.32 53.40 56.33 64.31 63.33 64.26 59.71 43.11 43.33 44.60 52.87 44.78 46.05 54.49 62.23 60.25 60.53 60.15 60.19 61.51 62.13 63.53 64.86 66.14 66.03
58.25 59.14 59.76 63.20 64.03 64.99 63.64 63.98 65.54 66.35 64.66 63.12 62.79 61.90 62.98 63.64 62.27 45.16 45.14 48.22 47.88 63.40 64.28 53.66 43.14 41.51 42.95 47.77 42.35 43.51 46.68 62.32 60.97 58.48 58.27 60.57 61.22 62.35 63.10 63.68 64.02 64.52 65.51
58.23 59.90 62.42 62.12 62.27 62.90 63.87 65.78 65.82 64.77 63.35 63.05 62.62 62.37 63.23 63.37 62.55 62.78 61.94 61.10 51.04 57.59 51.51 56.06 51.59 51.95 49.55 53.27 54.03 55.84 63.30 63.22 62.57 61.92 60.73 60.44 61.17 61.22 61.15 62.53 61.68 62.42 61.53
58.34 61.17 61.83 61.53 61.89 62.44 63.63 64.77 64.41 64.67 62.67 63.33 63.44 63.79 62.53 61.86 62.22 58.01 59.11 63.04 63.76 58.47 59.08 60.53 60.81 62.28 60.72 60.29 61.36 61.28 61.31 61.98 61.08 60.74 60.16 59.96 59.80 59.88 60.79 61.80 62.01 60.83 60.06
60.64 60.47 60.90 60.51 60.44 62.03 61.27 55.52 43.46 46.03 43.85 45.63 50.03 59.42 63.18 51.75 45.32 44.23 43.51 43.69 45.14 46.23 59.35 60.54 60.64 61.45 60.03 60.15 60.40 59.67 61.20 58.43 61.46 61.96 60.39 59.62 59.35 60.44 60.02 60.17 60.16 59.61 59.86
60.49 59.85 59.84 60.30 61.73 60.39 61.29 58.70 56.30 51.53 42.48 41.30 41.88 45.13 47.44 47.33 42.78 42.24 42.24 42.42 43.15 47.66 61.09 59.99 59.61 59.55 60.12 60.62 60.51 60.30 60.15 60.34 61.20 60.89 60.80 61.89 60.94 59.90 58.54 58.65 59.94 60.24 57.13
60.93 53.05 63.03 61.66 62.53 62.42 62.19 61.52 60.91 60.35 59.24 58.07 45.11 47.87 41.94 41.15 40.79 41.15 42.42 47.35 56.60 56.73 61.66 60.00 60.13 60.14 60.19 60.38 60.68 60.44 60.19 60.19 60.22 59.33 59.35 58.91 59.90 59.27 58.91 58.67 58.36 60.13 60.30
62.83 62.10 62.53 63.17 63.76 61.91 63.05 62.55 61.69 61.69 60.14 57.38 54.13 47.19 42.58 39.69 40.61 41.88 44.60 59.78 59.13 59.95 60.91 60.84 61.00 61.01 61.10 61.25 60.96 60.96 60.70 59.95 59.39 59.52 59.42 59.11 59.72 59.76 59.35 57.95 57.09 48.13 51.05
62.73 52.26 57.16 63.28 62.71 62.67 61.43 61.73 60.61 58.56 57.99 58.73 57.90 54.24 51.78 52.96 55.37 56.74 59.93 60.64 58.66 58.51 58.32 60.30 62.09 62.39 61.46 60.62 60.44 60.76 59.93 58.59 60.09 59.35 59.45 59.94 60.14 59.37 58.22 59.08 60.85 58.99 57.59
63.04 62.86 54.54 62.86 61.59 62.71 61.76 60.60 59.04 58.91 58.22 58.59 57.25 56.00 44.60 58.82 58.63 58.38 57.71 59.98 57.75 58.51 59.07 59.57 61.56 61.63 61.43 61.15 61.05 59.33 59.09 59.35 59.38 60.00 60.02 59.71 61.04 58.73 62.29 59.48 60.80 58.40 57.68
63.35 62.33 62.40 62.59 61.17 60.77 60.14 60.40 59.15 57.28 57.52 55.66 53.90 49.71 40.06 57.56 56.06 54.51 55.33 55.51 59.36 61.05 61.02 60.93 60.56 60.32 62.01 61.57 61.61 61.38 61.37 60.38 60.61 61.19 58.63 61.33 60.80 60.16 60.76 60.68 60.94 60.63 60.63
63.82 63.36 63.07 61.92 60.12 54.44 58.23 57.94 57.52 56.41 55.56 55.04 55.17 53.95 52.20 50.50 49.92 50.63 50.91 54.46 58.31 58.08 58.37 59.13 56.93 58.45 60.10 58.76 56.04 60.28 61.54 61.48 62.69 64.03 62.51 62.20 60.98 61.66 61.41 60.99 61.37 60.22 60.44
62.04 60.42 60.15 59.00 58.10 57.35 57.87 57.52 57.82 52.22 55.84 53.78 50.71 49.87 48.56 47.79 47.75 47.72 48.89 49.51 52.58 51.52 51.67 52.81 55.66 57.36 57.90 57.79 57.95 59.60 60.39 58.86 63.30 62.79 62.18 61.03 59.37 57.01 57.65 55.99 54.59 52.80 50.42
61.96 60.67 60.14 58.76 57.88 56.73 56.71 57.06 56.41 55.34 52.60 48.59 48.29 47.96 45.98 45.22 46.35 46.70 48.68 48.23 47.13 45.48 46.76 50.29 50.28 51.35 50.96 50.96 49.07 46.39 36.16 34.86 50.97 46.32 55.73 52.25 48.93 48.81 47.90 46.73 45.77 45.22 45.85
60.11 59.98 59.37 58.56 57.63 57.39 57.10 54.46 53.53 52.02 47.93 46.27 45.39 44.34 44.44 45.00 45.37 45.74 46.04 46.30 45.45 42.34 40.85 41.05 41.37 42.97 43.09 42.06 39.17 34.25 33.95 34.48 42.09 36.70 54.51 54.25 52.31 51.13 49.88 48.76 46.45 45.31 45.14
MSLP
1002.21 1002.09 1001.81 1001.31 1001.04 1000.83 1000.52 1000.28 1000.42 1000.41 1000.32 1000.47 1000.43 1000.85 1001.32 1001.79 1002.43 1003.09 1003.23 1003.48 1003.94 1004.40 1005.03 1005.66 1006.18 1006.41 1006.82 1007.21 1007.17 1007.02 1007.47 1007.17 1007.18 1008.26 1009.12 1009.91 1010.07 1010.23 1010.24 1010.18 1010.30 1010.04 1010.64
1001.49 1001.31 1001.12 1000.86 1000.42 1000.13 999.80 999.59 999.55 999.26 999.64 999.95 999.80 999.98 1000.37 1001.03 1001.79 1002.26 1002.48 1002.61 1003.35 1003.95 1004.65 1005.21 1005.64 1006.32 1006.53 1006.64 1006.79 1007.28 1007.09 1007.18 1007.37 1008.31 1009.26 1009.81 1010.06 1010.29 1010.55 1010.30 1010.34 1010.20 1010.38
1000.90 1000.77 1000.33 999.94 999.69 999.55 999.23 998.98 998.97 998.78 998.80 998.90 998.87 998.93 999.32 1000.08 1000.95 1001.63 1001.84 1002.32 1002.96 1003.65 1004.28 1004.86 1005.10 1005.64 1006.05 1006.36 1006.74 1006.74 1007.34 1007.71 1008.04 1008.15 1008.92 1009.81 1010.34 1010.30 1010.96 1010.74 1010.77 1010.93 1010.92
1000.39 1000.15 999.84 999.27 998.88 998.76 998.48 998.18 998.07 998.08 997.77 997.92 998.16 998.44 998.78 999.52 1000.33 1001.05 1001.44 1002.02 1002.79 1003.51 1003.93 1004.56 1004.96 1005.48 1005.70 1006.27 1006.51 1006.92 1007.33 1007.63 1007.80 1008.13 1008.78 1009.55 1010.25 1010.83 1010.94 1010.92 1011.09 1011.24 1011.52
999.73 999.42 999.10 998.61 998.14 997.74 997.54 997.24 997.08 997.11 996.99 997.09 997.54 997.87 998.40 999.08 999.66 1000.49 1001.21 1002.04 1002.57 1003.28 1004.19 1004.51 1004.84 1005.29 1005.60 1006.02 1006.32 1006.99 1007.31 1007.51 1007.49 1008.09 1008.86 1009.28 1010.17 1010.63 1010.83 1010.93 1010.89 1011.33 1011.76
998.98 998.55 998.33 997.85 997.23 996.85 996.49 996.54 996.48 996.40 996.40 996.56 997.04 997.44 998.11 998.47 999.91 1000.58 1001.32 1002.15 1002.78 1003.43 1003.92 1004.29 1004.63 1005.51 1005.91 1006.39 1006.83 1007.16 1007.29 1007.45 1007.77 1008.49 1008.57 1008.81 1009.82 1010.29 1010.63 1010.77 1011.03 1011.26 1011.53
998.17 997.74 997.25 996.80 996.08 995.97 995.44 995.61 995.62 995.77 995.99 996.18 996.73 997.31 998.24 998.97 1000.32 1001.07 1001.91 1002.33 1002.79 1003.29 1003.67 1004.09 1004.40 1004.90 1005.79 1006.17 1007.22 1007.56 1007.79 1008.06 1008.48 1008.43 1008.25 1008.49 1009.30 1009.90 1009.95 1010.58 1011.12 1010.80 1010.54
997.27 996.75 996.34 995.95 995.15 995.19 994.40 994.67 995.01 995.38 995.71 995.90 996.59 997.39 998.72 1000.05 1000.90 1001.67 1002.07 1002.39 1002.83 1003.23 1003.55 1003.99 1004.47 1004.99 1005.61 1005.96 1006.75 1007.20 1007.62 1008.38 1008.64 1008.30 1008.56 1008.61 1009.13 1009.67 1010.03 1010.32 1010.71 1010.96 1011.19
996.31 995.73 995.49 995.07 994.58 994.46 993.83 994.20 994.87 995.37 995.79 996.31 996.96 997.80 998.71 1000.57 1001.52 1001.77 1001.99 1002.44 1002.74 1003.20 1003.62 1004.05 1004.79 1005.10 1005.83 1006.37 1006.60 1007.08 1007.79 1008.38 1008.99 1008.89 1008.88 1008.96 1009.32 1009.66 1009.87 1010.39 1010.65 1010.77 1010.84
995.33 994.64 994.41 993.89 993.95 993.60 993.61 994.50 994.91 995.32 995.67 996.19 997.09 998.14 999.35 1000.66 1001.92 1001.92 1002.09 1001.74 1002.73 1003.17 1004.01 1004.65 1005.24 1005.15 1006.22 1006.67 1006.74 1007.33 1007.79 1008.16 1008.30 1009.10 1009.78 1010.13 1010.22 1010.61 1010.63 1010.66 1010.23 1010.00 1010.31
994.53 993.88 993.23 993.15 993.22 993.15 993.69 994.32 994.74 995.14 995.71 996.56 997.62 998.87 999.84 1000.83 1002.10 1002.40 1002.45 1002.00 1002.65 1003.18 1003.49 1004.27 1005.00 1006.19 1006.59 1007.08 1007.22 1007.49 1007.87 1008.16 1008.65 1008.70 1009.17 1009.59 1010.11 1010.53 1010.62 1010.40 1010.16 1009.67 1009.66
993.25 992.85 992.23 992.37 992.52 992.69 993.31 993.98 994.47 995.22 995.80 996.98 997.89 999.25 1000.28 1001.26 1002.34 1002.97 1002.91 1002.60 1002.90 1002.76 1003.43 1004.00 1005.68 1006.62 1007.10 1007.35 1007.61 1007.87 1008.22 1008.13 1008.58 1009.01 1009.26 1009.53 1009.80 1009.99 1010.31 1010.20 1010.18 1009.83 1009.82
991.65 991.46 991.55 991.66 991.88 992.50 993.11 993.87 994.85 995.57 995.84 997.05 998.04 998.98 1000.21 1001.24 1002.34 1003.43 1003.40 1003.35 1003.69 1003.48 1003.77 1005.33 1006.38 1007.02 1007.29 1007.69 1008.01 1008.11 1008.31 1007.91 1008.37 1008.79 1009.17 1009.14 1009.64 1009.73 1010.24 1010.28 1010.38 1010.31 1010.33
990.71 990.84 990.79 991.13 991.90 992.81 993.62 994.35 994.77 995.58 996.12 997.23 997.99 999.00 999.55 1000.81 1002.03 1002.74 1003.51 1003.91 1004.22 1004.72 1005.64 1006.27 1006.60 1006.71 1006.53 1007.59 1008.26 1008.27 1007.54 1007.61 1008.01 1008.35 1008.72 1009.30 1009.75 1010.01 1010.09 1010.03 1010.14 1010.19 1010.14
988.73 989.80 990.34 991.30 992.13 993.14 994.12 995.10 995.68 996.40 996.64 996.96 997.84 998.47 999.48 1000.69 1001.59 1002.04 1002.72 1003.18 1003.63 1004.52 1005.52 1006.16 1006.24 1006.24 1006.99 1007.32 1007.26 1007.51 1007.81 1007.69 1007.90 1008.32 1008.84 1009.30 1009.58 1009.80 1009.79 1010.00 1010.00 1010.27 1010.29
987.92 989.96 990.42 991.50 992.64 993.62 994.69 996.49 997.90 998.31 998.31 998.22 998.27 998.52 999.66 1001.03 1002.17 1003.06 1003.48 1003.84 1004.55 1005.26 1005.43 1005.66 1005.96 1005.92 1006.77 1007.05 1007.18 1007.63 1007.64 1007.82 1007.86 1007.99 1008.49 1008.99 1009.26 1009.31 1009.71 1010.16 1010.38 1010.38 1010.13
989.67 990.36 991.22 991.88 992.66 993.45 994.83 996.19 997.94 999.72 999.83 1000.24 1000.14 1000.20 1000.76 1002.07 1003.08 1003.69 1004.20 1004.77 1005.19 1005.30 1005.29 1005.87 1006.06 1006.36 1006.70 1006.84 1007.10 1007.36 1007.53 1007.96 1008.25 1008.29 1008.42 1008.40 1008.89 1009.41 1009.87 1010.09 1010.10 1010.25 1010.71
990.31 991.11 991.05 991.74 992.40 993.35 994.57 995.92 997.36 998.57 999.81 1000.87 1001.79 1001.86 1002.48 1003.15 1003.78 1004.29 1004.80 1005.23 1005.73 1005.64 1005.36 1005.78 1005.92 1006.30 1006.66 1006.89 1007.02 1007.34 1007.73 1008.04 1008.22 1008.59 1008.86 1009.13 1009.22 1009.41 1009.60 1009.86 1010.24 1010.19 1010.38
990.26 991.01 991.06 991.34 992.14 993.39 994.72 995.68 996.82 998.17 999.59 1000.96 1002.39 1003.21 1003.71 1003.99 1004.35 1004.80 1004.96 1004.98 1005.27 1005.30 1005.45 1005.67 1005.90 1006.17 1006.47 1006.78 1007.02 1007.35 1007.70 1008.23 1008.44 1008.57 1008.86 1009.16 1009.29 1009.40 1009.60 1010.04 1010.38 1010.64 1010.72
990.48 991.40 991.90 992.52 993.69 994.60 995.67 996.22 997.57 998.98 1000.01 1000.83 1001.94 1003.22 1003.94 1004.21 1004.87 1005.10 1004.97 1005.04 1005.44 1005.64 1005.78 1005.64 1005.59 1005.68 1006.27 1006.51 1006.83 1007.17 1007.65 1008.23 1008.30 1008.51 1008.71 1008.90 1009.12 1009.39 1009.62 1009.73 1009.71 1010.16 1010.44
991.22 992.04 992.62 993.31 994.36 994.88 995.95 996.97 998.26 999.20 1000.08 1000.97 1002.14 1003.06 1003.58 1003.97 1004.32 1004.84 1005.25 1005.22 1005.50 1005.69 1005.98 1005.74 1005.63 1005.95 1006.33 1006.67 1006.89 1007.50 1007.58 1007.71 1007.95 1008.11 1008.42 1008.94 1008.88 1009.21 1008.96 1009.52 1009.51 1010.00 1010.21
991.39 991.99 992.72 993.59 995.04 995.97 996.91 997.76 998.82 999.78 1000.60 1001.68 1002.87 1003.62 1004.04 1004.49 1005.04 1005.45 1005.82 1005.86 1005.61 1005.63 1006.03 1006.20 1006.54 1006.81 1006.67 1006.89 1007.19 1007.22 1007.40 1007.72 1007.88 1007.90 1008.63 1008.56 1008.87 1008.95 1008.96 1009.31 1009.24 1009.52 1009.56
991.60 992.40 993.44 994.83 996.03 997.16 997.78 998.59 999.41 1000.37 1001.39 1002.39 1003.16 1003.95 1004.71 1005.37 1005.89 1006.29 1006.59 1006.49 1006.29 1006.79 1007.20 1007.25 1007.53 1007.45 1007.65 1008.15 1008.37 1007.92 1007.72 1007.81 1007.74 1007.88 1008.16 1008.29 1008.66 1008.59 1008.77 1008.96 1009.05 1009.68 1009.64
993.17 994.01 995.01 996.08 996.90 997.75 998.44 999.19 1000.01 1000.99 1001.96 1003.03 1004.04 1004.84 1005.62 1006.26 1006.68 1007.11 1007.40 1007.74 1007.97 1008.39 1008.52 1008.39 1008.19 1008.22 1008.43 1008.53 1008.52 1008.34 1008.35 1008.72 1008.22 1008.30 1008.58 1008.85 1009.21 1009.43 1009.78 1010.12 1010.44 1010.77 1011.03
993.88 994.76 995.69 996.70 997.67 998.53 999.29 1000.00 1000.86 1001.80 1002.98 1004.04 1004.88 1005.67 1006.41 1006.94 1007.41 1007.82 1008.12 1008.63 1009.19 1009.53 1009.62 1009.53 1009.64 1009.71 1009.89 1009.91 1010.10 1010.23 1010.39 1009.87 1009.51 1009.47 1009.68 1010.05 1010.51 1010.76 1011.05 1011.37 1011.66 1011.86 1012.02
995.26 995.97 996.73 997.51 998.34 999.10 999.89 1000.78 1001.72 1002.83 1003.97 1004.91 1005.77 1006.55 1007.24 1007.76 1008.25 1008.67 1009.05 1009.47 1010.07 1010.74 1011.15 1011.39 1011.48 1011.43 1011.46 1011.63 1011.77 1011.49 1011.05 1010.84 1010.61 1010.44 1009.99 1010.29 1010.73 1011.03 1011.37 1011.54 1011.86 1012.08 1012.47
Wind_Speed
14 15 15 15 15 14 14 14 16 15 14 15 15 15 16 16 15 14 13 14 13 11 10 11 13 10 8 7 8 8 5 7 8 3 2 3 3 4 4 5 5 6 6
14 14 15 15 15 15 15 16 15 16 16 16 15 16 16 16 16 16 16 14 13 12 12 11 11 10 11 9 7 7 8 4 6 5 3 4 2 4 2 4 4 3 5
14 15 16 16 15 16 16 16 16 16 16 15 15 16 17 17 16 16 15 13 12 12 13 13 13 12 11 8 9 7 6 6 6 4 5 3 1 3 0 2 3 6 5
15 15 16 17 16 16 17 17 16 17 16 16 16 16 16 16 16 16 14 13 12 12 13 12 12 12 11 11 9 8 7 6 6 5 4 5 3 3 3 4 4 3 4
17 16 17 17 17 17 17 17 16 17 16 16 16 16 16 15 13 15 13 13 12 10 10 9 10 10 7 8 7 8 8 9 6 6 4 5 4 3 3 1 4 5 4
17 18 17 17 17 18 17 16 16 17 16 17 17 17 16 12 15 11 14 12 12 11 10 10 9 7 6 4 2 2 7 8 6 4 6 7 7 6 5 5 6 7 5
18 18 17 17 17 18 17 17 17 17 16 16 17 17 16 12 17 15 12 12 11 10 10 10 9 8 9 11 5 4 4 3 1 5 8 6 8 9 9 10 5 4 4
18 19 16 18 16 19 18 17 16 15 16 15 15 16 13 11 17 16 13 12 11 10 9 8 7 6 9 9 10 10 8 4 4 7 5 4 7 10 5 6 6 5 6
19 20 16 18 15 15 16 15 14 14 13 13 13 14 15 13 12 15 13 11 10 8 7 6 8 8 9 6 10 10 6 5 5 7 8 10 11 9 8 6 7 7 6
20 19 17 15 13 13 12 13 14 13 14 14 14 15 15 16 9 13 9 9 9 7 6 6 8 2 11 9 9 7 7 6 7 8 7 8 8 8 10 6 9 8 8
19 18 18 12 12 13 13 13 13 14 15 14 16 15 15 13 8 7 5 7 8 8 8 8 7 9 10 9 5 8 6 6 5 6 6 7 7 8 8 8 7 3 5
17 17 14 9 12 12 15 13 15 17 19 17 16 12 9 12 10 6 4 3 6 7 7 7 8 9 8 10 9 11 12 9 7 5 4 6 6 8 6 6 3 2 1
18 12 9 12 13 13 14 15 14 16 15 14 12 11 12 11 9 7 8 9 9 5 7 11 13 9 11 7 8 10 9 6 8 6 4 5 6 7 7 6 5 5 2
11 11 12 14 14 13 11 12 14 13 14 14 13 13 12 11 11 10 9 8 10 11 12 9 9 9 7 11 9 8 4 4 5 6 7 7 6 6 5 6 5 6 5
11 13 13 12 13 13 11 10 13 12 10 14 13 12 12 11 11 11 10 10 9 10 11 9 7 9 9 8 7 5 4 5 5 6 6 6 6 7 6 5 4 5 6
8 12 12 11 11 12 12 12 23 13 17 14 12 10 10 14 16 12 11 14 17 15 9 9 8 8 8 8 7 6 5 4 5 6 8 8 7 6 5 5 5 5 6
10 13 11 13 13 13 12 13 13 13 22 20 15 15 13 15 15 13 14 14 13 7 8 7 8 7 7 6 7 6 6 4 5 4 4 4 7 6 7 6 5 4 3
14 14 13 12 14 14 14 14 14 13 12 10 14 10 15 15 14 16 15 11 5 3 8 6 8 8 7 6 6 6 5 5 5 5 5 5 5 6 6 5 4 3 2
18 13 11 13 14 15 14 14 13 14 12 11 9 8 10 13 14 13 8 7 6 7 7 7 7 7 7 6 5 6 6 5 5 5 5 5 5 4 4 4 4 3 2
15 14 12 14 14 14 12 14 12 12 12 11 10 8 6 7 6 6 6 8 6 6 4 8 8 7 7 7 6 5 5 6 6 5 5 5 5 5 5 5 5 6 6
13 14 16 14 12 13 12 13 12 12 11 11 11 9 10 10 9 7 5 7 5 7 7 4 8 5 4 5 6 5 5 4 5 6 6 6 7 8 6 5 5 6 7
14 14 13 13 12 12 12 13 12 12 12 11 9 6 9 8 8 6 7 4 3 7 5 6 6 5 3 5 3 5 5 5 4 4 3 5 4 6 7 7 5 5 7
12 13 14 12 11 13 11 11 12 11 10 11 10 9 8 7 7 8 7 7 9 9 7 7 6 5 6 5 2 3 1 3 2 4 4 6 6 5 5 3 3 3 3
13 12 12 12 10 10 11 11 12 12 12 11 9 9 9 9 8 8 9 8 9 9 7 6 8 8 6 7 5 6 7 6 4 6 8 8 8 7 7 8 8 9 8
11 11 13 12 11 11 12 12 11 12 12 10 10 10 9 8 10 9 10 9 10 10 10 9 8 11 13 14 13 12 8 9 10 9 10 13 12 12 10 8 8 9 9
12 13 11 10 11 11 11 11 13 13 11 9 9 9 10 10 9 10 10 10 11 12 12 10 12 16 16 14 14 12 11 12 11 9 9 9 10 9 9 10 12 8 10
Wind_Direction
292 283 275 273 270 265 257 248 239 230 230 224 209 202 198 195 191 191 198 178 183 181 191 195 199 197 210 204 222 235 247 244 259 142 98 162 208 208 233 220 217 202 160
290 284 273 269 270 266 260 253 247 233 221 221 205 193 191 192 189 193 190 174 184 185 186 197 193 192 205 214 217 228 231 222 263 185 130 185 191 158 232 221 220 177 178
288 282 271 265 264 259 256 252 243 229 217 213 204 197 193 190 187 192 183 178 185 188 190 196 201 193 199 199 224 199 219 220 211 192 146 175 144 133 356 103 137 75 62
286 280 276 269 263 257 254 250 238 228 214 206 202 197 192 186 187 185 177 180 184 192 202 205 202 200 203 210 209 216 220 210 201 217 175 175 156 138 193 156 135 117 100
284 278 273 270 269 260 253 247 236 224 213 202 196 195 187 185 181 178 176 182 186 181 180 188 191 202 197 207 211 208 206 217 196 179 172 188 165 153 178 202 158 141 94
281 278 274 268 264 265 248 243 229 217 208 199 192 188 180 186 133 151 172 168 174 168 175 194 190 162 169 173 211 294 229 206 196 184 200 196 178 176 157 163 153 161 147
275 272 267 271 261 261 243 233 218 208 197 190 183 178 173 158 128 129 147 162 164 180 185 189 201 182 200 195 144 125 146 62 42 259 209 179 183 182 177 170 179 220 151
269 270 271 269 259 258 235 221 208 197 189 177 173 169 170 134 137 146 159 156 177 181 182 190 202 208 210 201 180 189 183 189 214 236 236 195 175 177 196 182 159 137 110
268 262 270 264 258 252 224 205 193 185 171 163 166 159 149 146 146 147 166 165 171 171 179 173 183 191 152 183 180 174 172 162 99 54 59 98 129 169 157 150 160 173 155
262 268 267 263 265 224 180 189 181 172 159 150 146 148 136 139 155 150 186 180 164 156 157 145 53 183 141 163 168 151 145 173 165 139 127 103 141 142 154 169 186 181 152
268 269 268 254 245 185 178 177 166 148 139 130 128 133 123 129 142 154 236 165 160 173 165 168 144 128 143 168 156 158 149 160 112 141 141 137 152 164 185 205 227 245 190
267 261 260 254 203 175 158 150 145 136 130 128 122 110 110 132 132 133 71 125 158 166 152 137 115 136 134 139 148 135 149 168 141 134 138 145 161 166 184 199 198 182 263
244 252 231 200 152 145 147 138 139 139 130 123 129 127 147 142 135 90 87 81 34 148 130 92 106 122 122 106 116 140 164 164 150 152 163 158 172 162 163 182 180 232 128
243 215 166 145 144 141 139 140 138 134 130 140 144 153 146 146 148 149 140 126 114 96 107 118 116 107 89 103 132 169 169 166 162 168 159 152 150 157 177 180 183 190 208
255 152 136 133 131 131 115 124 126 128 145 148 149 150 150 157 160 149 156 160 155 121 126 137 152 137 137 149 146 139 132 151 142 129 138 160 163 171 178 159 185 169 217
142 128 126 122 122 126 117 89 48 70 60 73 97 145 145 120 114 114 100 97 114 151 147 152 158 148 148 160 147 145 151 163 151 167 162 163 175 168 154 158 178 203 228
130 120 122 132 122 125 118 118 108 67 62 53 58 79 95 121 120 118 117 127 148 162 152 156 149 153 152 155 156 157 152 140 157 163 176 160 157 159 170 179 199 174 202
129 140 137 131 134 135 135 126 125 126 120 108 44 78 105 109 114 119 124 124 136 210 149 161 157 154 155 159 165 150 149 151 154 160 162 173 176 176 190 177 187 236 179
138 130 133 136 138 121 128 129 129 127 119 117 118 81 78 92 115 129 156 140 147 144 150 155 143 152 155 155 153 154 159 159 159 166 162 176 187 194 179 172 171 191 182
126 125 122 118 126 128 127 128 119 123 130 135 125 123 127 121 128 153 153 139 131 139 147 171 165 142 148 163 161 151 143 173 171 175 180 182 183 189 197 212 204 182 203
125 129 122 125 127 129 131 126 133 131 128 123 131 135 134 143 145 125 127 135 147 142 140 182 142 123 113 139 129 172 184 182 182 188 175 189 192 213 194 195 206 205 219
131 134 131 122 119 131 130 133 128 125 126 118 110 99 93 106 101 88 90 72 132 99 110 101 91 81 95 111 86 151 158 150 182 152 124 207 202 193 201 200 224 210 222
120 118 120 121 118 119 118 120 125 121 113 119 117 108 92 85 85 90 87 82 89 80 77 91 98 88 68 60 21 180 122 83 136 149 170 169 190 215 212 249 236 143 40
123 116 114 120 117 115 117 120 121 113 123 111 101 103 104 101 95 94 97 92 89 81 75 67 65 68 82 81 53 36 36 11 57 54 56 58 58 61 59 61 60 66 70
114 122 122 120 120 118 122 123 117 119 110 105 108 108 102 97 103 102 100 96 89 79 68 72 66 68 65 64 63 57 34 32 49 64 76 82 81 79 81 84 83 75 75
121 118 115 116 121 125 119 116 120 117 108 103 102 99 105 108 107 105 101 98 95 84 77 69 73 73 72 63 59 48 44 43 41 31 85 92 92 92 91 86 82 82 75